Location: Spring Creek
(38.2870°N, 100.2160°W)
Time: 02:51:07
(UTC+00:00)

Meteor 2-15 - Pass Details

Date: 30 September 2021
Orbit: 937 x 954 km, 82.5° (Epoch: 23 October)

Event Time Altitude Azimuth Distance (km) Brightness Sun altitude
Exits shadow 10:41:22 12° 322° (NW) 2,552 6.5 -23.1°
Drops below altitude 10° 10:42:01 10° 327° (NNW) 2,674 6.6 -23.0°
Sets 10:45:43 0° 350° (N) 3,628 7.5 -22.3°
